Location: Caltech
(34.1382°N, 118.1253°W)
Time: 07:21:14
(UTC-07:00)

AO-7 - Pass Details

Date: 25 March 2018
Orbit: 1439 x 1459 km, 101.7° (Epoch: 21 April)

Event Time Altitude Azimuth Distance (km) Brightness Sun altitude
Rises 02:29:53 0° 43° (NE) 4,536 ? -48.1°
Reaches altitude 10° 02:36:32 10° 82° (E) 3,551 ? -47.3°
Maximum altitude 02:37:47 10° 91° (E) 3,520 ? -47.1°
Drops below altitude 10° 02:39:02 10° 100° (E) 3,549 ? -46.9°
Enters shadow 02:42:09 - 120° (ESE) 3,864 ? -46.5°
